Location: Chapel Hill
(35.9134°N, 79.0560°W)
Time: 04:38:18
(UTC-04:00)

ACS3 Solar Sail - Pass Details

Date: 22 June 2024
Orbit: 993 x 1022 km, 97.4° (Epoch: 23 July)

Event Time Altitude Azimuth Distance (km) Brightness Sun altitude
Exits shadow 22:31:39 31° 143° (SE) 1,681 5.5 -18.8°
Maximum altitude 22:34:40 62° 75° (ENE) 1,118 4.9 -19.1°
Drops below altitude 10° 22:40:47 10° 356° (N) 2,765 8.0 -19.9°
Sets 22:43:18 0° 353° (N) 3,716 8.8 -20.2°
